sat.trackr.live / text

‹ back to catalog

STARLINK-35666

NORAD 66222 · 2025-244S

PAYLOAD ACTIVE UNKNOWN

§ Identity

Operator
Country
US
Launch date
2025-10-28
Launch site
AFWTR
Launch vehicle
Mass (kg)
RCS (m²)

Purposes: comms

External: N2YO · Heavens-Above · Gunter

§ Orbital elements

Epoch: 2026-05-24T22:45:32.057280Z

Period
94.10 min
Inclination
53.1571°
Eccentricity
0.0001187
Mean motion
15.30207749 rev/d
Perigee alt
474.4 km
Apogee alt
476.0 km
Semi-major
6,853.3 km
B*
5.6971e-4
RAAN
235.7958°
Arg perigee
64.6517°
Mean anomaly
295.4607°
Rev number
3,333

§ Raw data

STARLINK-356661 66222U 25244S   26144.94828770  .00016556  00000+0  56971-3 0  99902 66222  53.1571 235.7958 0001187  64.6517 295.4607 15.30207749 33330

JSON: /api/v1/satellites/66222 · /tle

For live sub-satellite position, see the globe view (requires WebGL).

§ Visibility from observer

Set your observer location to see the next 7 days of passes ≥ 10°. The values pass through the URL so the page stays shareable.

No JS? Fill the form by hand. The geolocation button needs JavaScript.